When you browse on this site, cookies collect data to enhance your experience and personalize the content and advertising you see.
Visit our Privacy Policy to learn more. By continuing to use the site, you agree to this use of cookies and data.
  • Em Portugal
  • Lista de países
  • Para 7 dias
  • Temperatura da água
  • Mapa do tempo
  • Widgets de tempo
  • user-avatar
    Iniciar Sessão

    Previsão horária em Zykovo

    Hoje, 21 Agosto, Quarta-feira

    Tempo Temperatura Precipitação Vento Pressão Humidade
    00:00 +17°C° 0 mm 2 m/s 754 mmHg 92%
    01:00 +17°C° 0 mm 2 m/s 754 mmHg 92%
    02:00 +17°C° 0 mm 2 m/s 754 mmHg 93%
    03:00 +17°C° 0 mm 2 m/s 754 mmHg 93%
    04:00 +17°C° 0 mm 2 m/s 754 mmHg 93%
    05:00 +17°C° 0 mm 2 m/s 755 mmHg 93%
    06:00 +17°C° 0 mm 2 m/s 755 mmHg 93%
    07:00 +19°C° 0 mm 2 m/s 755 mmHg 87%
    08:00 +20°C° 0 mm 2 m/s 755 mmHg 81%
    09:00 +23°C° 0 mm 2 m/s 755 mmHg 75%
    10:00 +24°C° 0 mm 2 m/s 755 mmHg 71%
    11:00 +25°C° 0 mm 3 m/s 755 mmHg 68%
    12:00 +26°C° 0 mm 3 m/s 755 mmHg 64%
    13:00 +26°C° 0 mm 3 m/s 755 mmHg 63%
    14:00 +26°C° 0 mm 3 m/s 755 mmHg 62%
    15:00 +27°C° 0 mm 3 m/s 755 mmHg 61%
    16:00 +26°C° 0 mm 2 m/s 754 mmHg 65%
    17:00 +25°C° 0 mm 2 m/s 754 mmHg 70%
    18:00 +25°C° 0 mm 2 m/s 754 mmHg 75%
    19:00 +23°C° 0 mm 2 m/s 754 mmHg 78%
    20:00 +21°C° 0 mm 2 m/s 754 mmHg 82%
    21:00 +21°C° 0 mm 1 m/s 754 mmHg 86%
    22:00 +20°C° 0 mm 1 m/s 754 mmHg 87%
    23:00 +20°C° 0 mm 1 m/s 754 mmHg 88%

    Amanhã, 22 Agosto, Quinta-feira

    Tempo Temperatura Precipitação Vento Pressão Humidade
    00:00 +20°C° 0 mm 1 m/s 754 mmHg 89%
    01:00 +19°C° 0 mm 1 m/s 754 mmHg 90%
    02:00 +17°C° 0 mm 0 m/s 754 mmHg 90%
    03:00 +17°C° 0 mm 0 m/s 754 mmHg 90%
    04:00 +17°C° 0 mm 0 m/s 754 mmHg 90%
    05:00 +17°C° 0 mm 0 m/s 754 mmHg 90%
    06:00 +17°C° 0 mm 0 m/s 754 mmHg 90%
    07:00 +21°C° 0 mm 1 m/s 754 mmHg 84%
    08:00 +22°C° 0 mm 1 m/s 754 mmHg 78%
    09:00 +24°C° 0 mm 1 m/s 754 mmHg 72%
    10:00 +25°C° 0 mm 1 m/s 754 mmHg 68%
    11:00 +26°C° 0 mm 1 m/s 754 mmHg 64%
    12:00 +27°C° 0 mm 1 m/s 753 mmHg 59%
    13:00 +27°C° 0 mm 1 m/s 753 mmHg 58%
    14:00 +27°C° 0 mm 1 m/s 753 mmHg 56%
    15:00 +28°C° 0 mm 1 m/s 753 mmHg 55%
    16:00 +27°C° 0 mm 1 m/s 752 mmHg 59%
    17:00 +27°C° 0 mm 1 m/s 752 mmHg 63%
    18:00 +26°C° 0 mm 1 m/s 752 mmHg 67%
    19:00 +25°C° 0 mm 1 m/s 752 mmHg 70%
    20:00 +21°C° 0 mm 0 m/s 752 mmHg 74%
    21:00 +20°C° 0 mm 0 m/s 752 mmHg 77%
    22:00 +19°C° 0 mm 0 m/s 752 mmHg 78%
    23:00 +19°C° 0 mm 0 m/s 752 mmHg 80%

    Depois de amanhã, 23 Agosto, Sexta-feira

    Tempo Temperatura Precipitação Vento Pressão Humidade
    00:00 +21°C° 0 mm 1 m/s 753 mmHg 81%
    01:00 +20°C° 0 mm 1 m/s 753 mmHg 83%
    02:00 +20°C° 0 mm 1 m/s 753 mmHg 84%
    03:00 +19°C° 0 mm 2 m/s 753 mmHg 86%
    04:00 +19°C° 0 mm 2 m/s 753 mmHg 88%
    05:00 +18°C° 0 mm 3 m/s 753 mmHg 90%
    06:00 +18°C° 0 mm 4 m/s 753 mmHg 92%
    07:00 +18°C° 0 mm 4 m/s 754 mmHg 90%
    08:00 +18°C° 0 mm 4 m/s 754 mmHg 88%
    09:00 +18°C° 0 mm 4 m/s 754 mmHg 86%
    10:00 +19°C° 0 mm 4 m/s 754 mmHg 81%
    11:00 +20°C° 0 mm 4 m/s 754 mmHg 76%
    12:00 +21°C° 0 mm 4 m/s 755 mmHg 70%
    13:00 +22°C° 0 mm 4 m/s 755 mmHg 67%
    14:00 +22°C° 0 mm 4 m/s 755 mmHg 64%
    15:00 +22°C° 0 mm 4 m/s 755 mmHg 61%
    16:00 +22°C° 0 mm 4 m/s 755 mmHg 65%
    17:00 +21°C° 0 mm 3 m/s 755 mmHg 68%
    18:00 +20°C° 0 mm 3 m/s 755 mmHg 72%
    19:00 +19°C° 0 mm 3 m/s 755 mmHg 74%
    20:00 +18°C° 0 mm 3 m/s 755 mmHg 75%
    21:00 +17°C° 0 mm 2 m/s 755 mmHg 77%
    22:00 +16°C° 0 mm 2 m/s 755 mmHg 78%
    23:00 +16°C° 0 mm 2 m/s 755 mmHg 78%

    24 Agosto, Sábado

    Tempo Temperatura Precipitação Vento Pressão Humidade
    00:00 +15°C° 0 mm 2 m/s 755 mmHg 79%
    01:00 +15°C° 0 mm 2 m/s 756 mmHg 80%
    02:00 +14°C° 0 mm 2 m/s 756 mmHg 82%
    03:00 +14°C° 0 mm 2 m/s 756 mmHg 83%
    04:00 +14°C° 0 mm 2 m/s 756 mmHg 84%
    05:00 +14°C° 0 mm 2 m/s 756 mmHg 84%
    06:00 +14°C° 0 mm 2 m/s 756 mmHg 85%
    07:00 +16°C° 0 mm 2 m/s 756 mmHg 79%
    08:00 +18°C° 0 mm 2 m/s 756 mmHg 73%
    09:00 +19°C° 0 mm 3 m/s 756 mmHg 68%
    10:00 +20°C° 0 mm 3 m/s 756 mmHg 63%
    11:00 +21°C° 0 mm 2 m/s 756 mmHg 59%
    12:00 +23°C° 0 mm 2 m/s 756 mmHg 54%
    13:00 +24°C° 0 mm 2 m/s 756 mmHg 53%
    14:00 +24°C° 0 mm 2 m/s 756 mmHg 52%
    15:00 +24°C° 0 mm 2 m/s 756 mmHg 51%
    16:00 +23°C° 0 mm 2 m/s 755 mmHg 56%
    17:00 +23°C° 0 mm 2 m/s 755 mmHg 61%
    18:00 +22°C° 0 mm 1 m/s 755 mmHg 65%
    19:00 +20°C° 0 mm 1 m/s 755 mmHg 68%
    20:00 +17°C° 0 mm 0 m/s 755 mmHg 71%
    21:00 +15°C° 0 mm 0 m/s 755 mmHg 74%
    22:00 +15°C° 0 mm 0 m/s 755 mmHg 76%
    23:00 +15°C° 0 mm 0 m/s 755 mmHg 77%

    25 Agosto, Domingo

    Tempo Temperatura Precipitação Vento Pressão Humidade
    00:00 +15°C° 0 mm 1 m/s 755 mmHg 78%
    01:00 +15°C° 0 mm 1 m/s 755 mmHg 79%
    02:00 +15°C° 0 mm 1 m/s 754 mmHg 80%
    03:00 +14°C° 0 mm 2 m/s 754 mmHg 82%
    04:00 +14°C° 0 mm 2 m/s 754 mmHg 82%
    05:00 +14°C° 0 mm 2 m/s 754 mmHg 82%
    06:00 +14°C° 0 mm 2 m/s 754 mmHg 83%
    07:00 +16°C° 0 mm 2 m/s 754 mmHg 77%
    08:00 +18°C° 0 mm 3 m/s 753 mmHg 72%
    09:00 +20°C° 0 mm 3 m/s 753 mmHg 67%
    10:00 +21°C° 0 mm 4 m/s 753 mmHg 64%
    11:00 +22°C° 0 mm 4 m/s 753 mmHg 61%
    12:00 +23°C° 0 mm 4 m/s 752 mmHg 58%
    13:00 +23°C° 0 mm 4 m/s 752 mmHg 58%
    14:00 +23°C° 0 mm 5 m/s 752 mmHg 57%
    15:00 +25°C° 0 mm 5 m/s 751 mmHg 57%
    16:00 +23°C° 0.1 mm 5 m/s 751 mmHg 62%
    17:00 +22°C° 0.1 mm 4 m/s 751 mmHg 67%
    18:00 +21°C° 0.1 mm 4 m/s 751 mmHg 72%
    19:00 +19°C° 0.4 mm 4 m/s 751 mmHg 79%
    20:00 +18°C° 0.4 mm 3 m/s 751 mmHg 86%
    21:00 +16°C° 0.4 mm 3 m/s 751 mmHg 93%
    22:00 +16°C° 0.1 mm 3 m/s 752 mmHg 92%
    23:00 +14°C° 0.1 mm 3 m/s 752 mmHg 92%

    26 Agosto, Segunda-feira

    Tempo Temperatura Precipitação Vento Pressão Humidade
    00:00 +14°C° 0.1 mm 3 m/s 752 mmHg 92%
    01:00 +13°C° 0 mm 3 m/s 753 mmHg 93%
    02:00 +12°C° 0 mm 3 m/s 753 mmHg 94%
    03:00 +11°C° 0 mm 3 m/s 753 mmHg 95%
    04:00 +11°C° 0 mm 3 m/s 754 mmHg 95%
    05:00 +11°C° 0 mm 4 m/s 754 mmHg 95%
    06:00 +11°C° 0 mm 4 m/s 754 mmHg 96%
    07:00 +11°C° 0 mm 4 m/s 755 mmHg 92%
    08:00 +12°C° 0 mm 4 m/s 755 mmHg 88%
    09:00 +12°C° 0 mm 5 m/s 756 mmHg 84%
    10:00 +13°C° 0 mm 5 m/s 756 mmHg 81%
    11:00 +13°C° 0 mm 5 m/s 756 mmHg 77%
    12:00 +14°C° 0 mm 5 m/s 757 mmHg 74%
    13:00 +14°C° 0 mm 5 m/s 757 mmHg 70%
    14:00 +15°C° 0 mm 4 m/s 757 mmHg 67%
    15:00 +17°C° 0 mm 4 m/s 757 mmHg 64%
    16:00 +17°C° 0 mm 3 m/s 757 mmHg 67%
    17:00 +16°C° 0 mm 3 m/s 757 mmHg 70%
    18:00 +16°C° 0 mm 2 m/s 757 mmHg 74%
    19:00 +14°C° 0 mm 2 m/s 757 mmHg 78%
    20:00 +13°C° 0 mm 2 m/s 758 mmHg 81%
    21:00 +12°C° 0 mm 1 m/s 758 mmHg 85%
    22:00 +11°C° 0 mm 1 m/s 758 mmHg 86%
    23:00 +11°C° 0 mm 1 m/s 758 mmHg 87%
    Mostrar mais